Weather History for Wolf Creek Pass, CO

Change the Weather History Date:

Thursday, May 2, 2013

  Actual Average (KALS) Record (KALS)
Temperature  
Mean Temperature 20 °F 47 °F  
Max Temperature 32 °F 65 °F 81 °F (1943)
Min Temperature 8 °F 30 °F 13 °F (2008)
Degree Days  
Heating Degree Days 45 18  
Month to date heating degree days 36  
Since 1 July heating degree days 8036  
Cooling Degree Days 0 0  
Month to date cooling degree days 0  
Year to date cooling degree days 0  
Moisture  
Dew Point 1 °F    
Average Humidity 47    
Maximum Humidity 92    
Minimum Humidity 20    
Precipitation  
Precipitation 0.00 in 0.02 in 0.44 in (1978)
Month to date precipitation 0.04  
Year to date precipitation 1.68  
Snow  
Snow 0.00 in 0.00 in 4.40 in (1978)
Month to date snowfall 0.1  
Since 1 July snowfall 26.8  
Snow Depth -    
Sea Level Pressure  
Sea Level Pressure 30.45 in    
Wind  
Wind Speed 17 mph (NNE)    
Max Wind Speed 29 mph    
Max Gust Speed 38 mph    
Visibility 10 miles    
Events      
T = Trace of Precipitation, MM = Missing Value Source: NWS Daily Summary

Daily Weather History Graph

Daily Weather History Graph

Search for Another Location

Airport:

Trip Planner

Search our weather history database for the weather conditions in past years. The results will help you decide how hot, cold, wet, or windy it might be!

Date:

Astronomy

May. 02, 2013 Rise Set
Actual Time 6:10 AM MDT 7:58 PM MDT
Civil Twilight 5:42 AM MDT 8:26 PM MDT
Nautical Twilight 5:08 AM MDT 9:00 PM MDT
Astronomical Twilight 4:32 AM MDT 9:37 PM MDT
Moon 1:50 AM MDT (5/2) 12:59 PM MDT (5/2)
Length of Visible Light 14h 44m
Length of Day
13h 47m
Waning Gibbous, 47% of the Moon is Illuminated
May 2
Waning Gibbous
May 9
New
May 17
First Quarter
May 24
Full
May 31
Last Quarter

Hourly Weather History & Observations

Time (MDT) Temp. Windchill Dew Point Humidity Pressure Visibility Wind Dir Wind Speed Gust Speed Precip Events Conditions
12:00 AM 14.0 °F -4.7 °F 8.6 °F 79% 30.34 in 10.0 mi NE 23.0 mph 29.9 mph N/A   Clear
12:20 AM 14.0 °F -2.5 °F 8.6 °F 79% 30.34 in 10.0 mi NE 17.3 mph 21.9 mph N/A   Clear
12:40 AM 14.0 °F -3.9 °F 8.6 °F 79% 30.35 in 10.0 mi NE 20.7 mph 24.2 mph N/A   Clear
1:00 AM 14.0 °F -3.4 °F 6.8 °F 73% 30.36 in 10.0 mi NE 19.6 mph 26.5 mph N/A   Clear
1:20 AM 14.0 °F -3.4 °F 6.8 °F 73% 30.36 in 10.0 mi NE 19.6 mph 26.5 mph N/A   Clear
1:40 AM 14.0 °F -4.7 °F 5.0 °F 67% 30.35 in 10.0 mi NE 23.0 mph 29.9 mph N/A   Clear
2:00 AM 12.2 °F -7.5 °F 5.0 °F 73% 30.35 in 10.0 mi NE 24.2 mph 31.1 mph N/A   Clear
2:20 AM 12.2 °F -7.9 °F 5.0 °F 73% 30.36 in 10.0 mi NE 25.3 mph 31.1 mph N/A   Clear
2:40 AM 12.2 °F -7.5 °F 6.8 °F 79% 30.36 in 10.0 mi NE 24.2 mph - N/A   Clear
3:00 AM 12.2 °F -6.3 °F 6.8 °F 79% 30.36 in 10.0 mi NE 20.7 mph 25.3 mph N/A   Clear
3:20 AM 12.2 °F -7.1 °F 5.0 °F 73% 30.37 in 10.0 mi NE 23.0 mph - N/A   Clear
3:40 AM 12.2 °F -6.3 °F 6.8 °F 79% 30.37 in 10.0 mi NE 20.7 mph - N/A   Clear
4:00 AM 10.4 °F -8.2 °F 8.6 °F 92% 30.37 in 10.0 mi NE 19.6 mph 25.3 mph N/A   Clear
4:20 AM 10.4 °F -9.1 °F 6.8 °F 85% 30.37 in 10.0 mi NE 21.9 mph - N/A   Clear
4:40 AM 10.4 °F -9.5 °F 5.0 °F 79% 30.38 in 10.0 mi NE 23.0 mph - N/A   Clear
5:00 AM 10.4 °F -7.7 °F 5.0 °F 79% 30.38 in 10.0 mi NE 18.4 mph - N/A   Clear
5:20 AM 10.4 °F -7.2 °F 5.0 °F 79% 30.39 in 10.0 mi NE 17.3 mph 23.0 mph N/A   Clear
5:40 AM 10.4 °F -8.2 °F 5.0 °F 79% 30.38 in 10.0 mi NE 19.6 mph - N/A   Clear
6:00 AM 10.4 °F -9.1 °F 3.2 °F 73% 30.39 in 10.0 mi NNE 21.9 mph - N/A   Clear
6:20 AM 8.6 °F -10.0 °F 3.2 °F 79% 30.39 in 10.0 mi NE 18.4 mph - N/A   Clear
6:40 AM 8.6 °F -10.0 °F 3.2 °F 79% 30.41 in 10.0 mi NE 18.4 mph - N/A   Clear
7:00 AM 10.4 °F -7.2 °F 5.0 °F 79% 30.42 in 10.0 mi NE 17.3 mph - N/A   Clear
7:20 AM 12.2 °F -5.8 °F 5.0 °F 73% 30.42 in 10.0 mi NE 19.6 mph - N/A   Clear
7:40 AM 12.2 °F -5.8 °F 5.0 °F 73% 30.42 in 10.0 mi ENE 19.6 mph - N/A   Clear
8:00 AM 14.0 °F -4.3 °F 5.0 °F 67% 30.43 in 10.0 mi NE 21.9 mph 26.5 mph N/A   Clear
8:20 AM 15.8 °F -3.1 °F 5.0 °F 62% 30.43 in 10.0 mi NE 25.3 mph 32.2 mph N/A   Clear
8:40 AM 15.8 °F -4.1 °F 3.2 °F 58% 30.43 in 10.0 mi NE 28.8 mph 38.0 mph N/A   Clear
9:00 AM 17.6 °F -1.0 °F 1.4 °F 49% 30.44 in 10.0 mi NE 26.5 mph 35.7 mph N/A   Clear
9:20 AM 17.6 °F 0.1 °F -0.4 °F 45% 30.44 in 10.0 mi ENE 23.0 mph 34.5 mph N/A   Clear
9:40 AM 19.4 °F 2.5 °F -2.2 °F 39% 30.45 in 10.0 mi ENE 23.0 mph 34.5 mph N/A   Clear
10:00 AM 19.4 °F 4.5 °F -2.2 °F 39% 30.47 in 10.0 mi ENE 17.3 mph 27.6 mph N/A   Clear
10:20 AM 19.4 °F 7.2 °F -0.4 °F 42% 30.48 in 10.0 mi NE 11.5 mph 19.6 mph N/A   Clear
10:40 AM 21.2 °F 10.9 °F 1.4 °F 42% 30.48 in 10.0 mi ENE 9.2 mph 20.7 mph N/A   Clear
11:00 AM 21.2 °F 7.8 °F -0.4 °F 39% 30.49 in 10.0 mi NNE 15.0 mph 25.3 mph N/A   Clear
11:20 AM 23.0 °F 11.7 °F 1.4 °F 39% 30.49 in 10.0 mi NNE 11.5 mph 23.0 mph N/A   Clear
11:40 AM 23.0 °F - -2.2 °F 33% 30.50 in 10.0 mi Calm Calm - N/A   Clear
12:00 PM 24.8 °F 17.9 °F 1.4 °F 36% 30.50 in 10.0 mi NE 5.8 mph 17.3 mph N/A   Clear
12:20 PM 26.6 °F 15.7 °F -4.0 °F 26% 30.50 in 10.0 mi North 12.7 mph 20.7 mph N/A   Clear
12:40 PM 26.6 °F - -4.0 °F 26% 30.50 in 10.0 mi Calm Calm - N/A   Clear
1:00 PM 26.6 °F 21.2 °F -4.0 °F 26% 30.49 in 10.0 mi North 4.6 mph - N/A   Clear
1:20 PM 28.4 °F 24.6 °F -0.4 °F 29% 30.49 in 10.0 mi ENE 3.5 mph - N/A   Clear
1:40 PM 28.4 °F - 1.4 °F 31% 30.50 in 10.0 mi Calm Calm - N/A   Clear
2:00 PM 30.2 °F 20.8 °F -4.0 °F 23% 30.50 in 10.0 mi North 11.5 mph - N/A   Clear
2:20 PM 30.2 °F - -4.0 °F 23% 30.50 in 10.0 mi Calm Calm - N/A   Clear
2:40 PM 30.2 °F 25.4 °F -5.8 °F 21% 30.50 in 10.0 mi West 4.6 mph - N/A   Clear
3:00 PM 32.0 °F 25.6 °F -0.4 °F 25% 30.50 in 10.0 mi NNW 6.9 mph - N/A   Clear
3:20 PM 32.0 °F 26.4 °F -2.2 °F 23% 30.50 in 10.0 mi NW 5.8 mph - N/A   Clear
3:40 PM 32.0 °F 24.8 °F -0.4 °F 25% 30.50 in 10.0 mi NW 8.1 mph - N/A   Clear
4:00 PM 32.0 °F 24.2 °F -4.0 °F 21% 30.50 in 10.0 mi North 9.2 mph 18.4 mph N/A   Clear
4:20 PM 32.0 °F 26.4 °F -4.0 °F 21% 30.49 in 10.0 mi North 5.8 mph 18.4 mph N/A   Clear
4:40 PM 32.0 °F 23.6 °F 1.4 °F 27% 30.49 in 10.0 mi NNE 10.4 mph - N/A   Clear
5:00 PM 32.0 °F 22.5 °F -4.0 °F 21% 30.49 in 10.0 mi North 12.7 mph 17.3 mph N/A   Clear
5:20 PM 32.0 °F 23.6 °F -4.0 °F 21% 30.50 in 10.0 mi North 10.4 mph - N/A   Clear
5:40 PM 32.0 °F 22.1 °F -2.2 °F 23% 30.50 in 10.0 mi NE 13.8 mph 20.7 mph N/A   Clear
6:00 PM 32.0 °F 24.8 °F -4.0 °F 21% 30.50 in 10.0 mi NNE 8.1 mph - N/A   Clear
6:20 PM 32.0 °F 23.6 °F -2.2 °F 23% 30.50 in 10.0 mi NE 10.4 mph - N/A   Clear
6:40 PM 32.0 °F 25.6 °F -4.0 °F 21% 30.51 in 10.0 mi NNE 6.9 mph - N/A   Clear
7:00 PM 32.0 °F 26.4 °F -5.8 °F 20% 30.50 in 10.0 mi NNE 5.8 mph - N/A   Clear
7:20 PM 32.0 °F 27.5 °F -4.0 °F 21% 30.50 in 10.0 mi WNW 4.6 mph - N/A   Clear
7:40 PM 30.2 °F 25.4 °F -4.0 °F 23% 30.51 in 10.0 mi WNW 4.6 mph - N/A   Clear
8:00 PM 30.2 °F 25.4 °F -4.0 °F 23% 30.51 in 10.0 mi NW 4.6 mph - N/A   Clear
8:20 PM 28.4 °F 24.6 °F -4.0 °F 25% 30.51 in 10.0 mi WNW 3.5 mph - N/A   Clear
8:40 PM 26.6 °F 16.8 °F -0.4 °F 31% 30.51 in 10.0 mi WSW 10.4 mph - N/A   Clear
9:00 PM 26.6 °F 16.2 °F 3.2 °F 37% 30.52 in 10.0 mi SW 11.5 mph 16.1 mph N/A   Clear
9:20 PM 24.8 °F 14.6 °F 3.2 °F 40% 30.52 in 10.0 mi SW 10.4 mph - N/A   Clear
9:40 PM 24.8 °F 14.0 °F 1.4 °F 36% 30.52 in 10.0 mi SW 11.5 mph - N/A   Clear
10:00 PM 23.0 °F 11.1 °F 1.4 °F 39% 30.52 in 10.0 mi SW 12.7 mph - N/A   Clear
10:20 PM 23.0 °F 10.6 °F 1.4 °F 39% 30.52 in 10.0 mi SW 13.8 mph - N/A   Clear
10:40 PM 23.0 °F 11.1 °F 1.4 °F 39% 30.51 in 10.0 mi SW 12.7 mph - N/A   Clear
11:00 PM 23.0 °F 12.4 °F 1.4 °F 39% 30.51 in 10.0 mi SW 10.4 mph - N/A   Clear
11:20 PM 23.0 °F 12.4 °F -0.4 °F 36% 30.50 in 10.0 mi SW 10.4 mph - N/A   Clear
11:40 PM 23.0 °F 13.1 °F -0.4 °F 36% 30.50 in 10.0 mi SW 9.2 mph - N/A   Clear